Change the Weather History Date:

Saturday, March 30, 2013

  Actual Average Record
Temperature  
Mean Temperature 65 °F -  
Max Temperature 75 °F 69 °F 84 °F (2008)
Min Temperature 55 °F 52 °F 39 °F (2003)
Growing Degree Days 15 (Base 50)    
Moisture  
Dew Point 57 °F    
Average Humidity 79    
Maximum Humidity 100    
Minimum Humidity 57    
Precipitation  
Precipitation 0.68 in - - ()
Sea Level Pressure  
Sea Level Pressure 30.01 in    
Wind  
Wind Speed 8 mph (SSE)    
Max Wind Speed 18 mph    
Max Gust Speed 26 mph    
Visibility 10 miles    
Events Rain , Thunderstorm    
Averages and records for this station are not official NWS values.
T = Trace of Precipitation, MM = Missing Value Source: NWS Daily Summary

Daily Weather History Graph

Daily Weather History Graph

Search for Another Location

Airport or City:

Trip Planner

Search our weather history database for the weather conditions in past years. The results will help you decide how hot, cold, wet, or windy it might be!

Date:

Astronomy

Mar. 30, 2013 Rise Set
Actual Time 7:17 AM CDT 7:46 PM CDT
Civil Twilight 6:52 AM CDT 8:11 PM CDT
Nautical Twilight 6:23 AM CDT 8:40 PM CDT
Astronomical Twilight 5:54 AM CDT 9:10 PM CDT
Moon 11:41 PM CDT 9:25 AM CDT
Length of Visible Light 13h 18m
Length of Day
12h 28m
Waning Gibbous, 86% of the Moon is Illuminated
Mar 30
Waning Gibbous
Apr 2
Last Quarter
Apr 10
New
Apr 18
First Quarter
Apr 25
Full

Hourly Weather History & Observations

Time (CDT) Temp. Dew Point Humidity Pressure Visibility Wind Dir Wind Speed Gust Speed Precip Events Conditions
12:15 AM 68.0 °F 53.6 °F 60% 30.04 in 10.0 mi South 11.5 mph 23.0 mph N/A   Mostly Cloudy
12:35 AM 68.0 °F 53.6 °F 60% 30.05 in 10.0 mi South 9.2 mph - N/A   Overcast
12:55 AM 68.0 °F 53.6 °F 60% 30.06 in 10.0 mi SSW 4.6 mph - N/A   Overcast
1:15 AM 68.0 °F 55.4 °F 64% 30.06 in 10.0 mi South 9.2 mph - N/A   Overcast
1:35 AM 68.0 °F 55.4 °F 64% 30.07 in 10.0 mi SSW 6.9 mph - N/A   Overcast
1:55 AM 62.6 °F 53.6 °F 72% 30.11 in 10.0 mi NW 12.7 mph 24.2 mph N/A Thunderstorm Thunderstorm
2:15 AM 59.0 °F 59.0 °F 100% 30.10 in 3.0 mi NW 18.4 mph 26.5 mph 0.29 in Rain , Thunderstorm Heavy Thunderstorms and Rain
2:35 AM 59.0 °F 59.0 °F 100% 30.09 in 4.0 mi West 6.9 mph 19.6 mph 0.51 in Rain , Thunderstorm Heavy Thunderstorms and Rain
2:55 AM 59.0 °F 59.0 °F 100% 30.07 in 5.0 mi SW 3.5 mph - 0.64 in Rain , Thunderstorm Heavy Thunderstorms and Rain
3:15 AM 59.0 °F 59.0 °F 100% 30.05 in 10.0 mi South 5.8 mph - 0.03 in Rain Light Rain
3:35 AM 59.0 °F 59.0 °F 100% 30.07 in 10.0 mi SSW 11.5 mph - 0.04 in Rain , Thunderstorm Light Thunderstorms and Rain
3:55 AM 57.2 °F 57.2 °F 100% 30.07 in 10.0 mi SW 3.5 mph - 0.04 in Rain , Thunderstorm Light Thunderstorms and Rain
4:15 AM 55.4 °F 55.4 °F 100% 30.05 in 10.0 mi Calm Calm - N/A Rain Light Rain
4:35 AM 55.4 °F 55.4 °F 100% 30.03 in 10.0 mi ENE 3.5 mph - N/A   Scattered Clouds
4:55 AM 57.2 °F 57.2 °F 100% 30.02 in 10.0 mi ENE 4.6 mph - N/A   Clear
5:15 AM 57.2 °F 57.2 °F 100% 30.02 in 10.0 mi East 3.5 mph - N/A   Clear
5:35 AM 57.2 °F 57.2 °F 100% 30.03 in 10.0 mi Calm Calm - N/A   Clear
5:47 AM 57.2 °F 53.6 °F 88% 30.04 in 10.0 mi SSE 4.6 mph - N/A   Scattered Clouds
5:55 AM 55.4 °F 55.4 °F 100% 30.05 in 10.0 mi South 4.6 mph - N/A   Mostly Cloudy
6:47 AM 57.2 °F 53.6 °F 88% 30.04 in 10.0 mi ESE 4.6 mph - N/A   Scattered Clouds
7:47 AM 57.2 °F 53.6 °F 88% 30.05 in 10.0 mi ESE 6.9 mph - N/A   Scattered Clouds
8:47 AM 62.6 °F 57.2 °F 82% 30.04 in 10.0 mi SSE 11.5 mph - N/A   Scattered Clouds
10:47 AM 64.4 °F 59.0 °F 83% 30.04 in 10.0 mi South 8.1 mph - N/A   Overcast
11:50 AM 69.8 °F 60.8 °F 73% 30.03 in 10.0 mi South 11.5 mph 19.6 mph N/A   Overcast
12:51 PM 73.4 °F 60.8 °F 65% 30.01 in 10.0 mi SSW 12.7 mph 19.6 mph N/A   Mostly Cloudy
1:55 PM 75.2 °F 60.8 °F 61% 29.98 in 13.0 mi SSW 10.4 mph 18.4 mph N/A   Overcast
3:47 PM 75.2 °F 59.0 °F 57% 29.93 in 13.0 mi South 12.7 mph 18.4 mph N/A   Overcast
4:47 PM 75.2 °F 59.0 °F 57% 29.93 in 13.0 mi South 10.4 mph 16.1 mph N/A   Overcast
5:47 PM 75.2 °F 59.0 °F 57% 29.92 in 13.0 mi South 11.5 mph - N/A   Overcast
8:47 PM 71.6 °F 60.8 °F 69% 29.91 in 13.0 mi SE 8.1 mph - N/A   Clear
9:47 PM 69.8 °F 60.8 °F 73% 29.92 in 15.0 mi SE 8.1 mph - N/A   Clear
10:15 PM 69.8 °F 59.0 °F 68% 29.92 in 10.0 mi ESE 5.8 mph - N/A   Clear
10:35 PM 69.8 °F 59.0 °F 68% 29.91 in 10.0 mi SE 5.8 mph - N/A   Clear
10:55 PM 68.0 °F 59.0 °F 73% 29.91 in 10.0 mi SSE 6.9 mph - N/A   Clear
11:15 PM 69.8 °F 59.0 °F 68% 29.91 in 10.0 mi SE 10.4 mph - N/A   Clear
11:35 PM 69.8 °F 59.0 °F 68% 29.90 in 10.0 mi SE 5.8 mph - N/A   Clear
11:55 PM 69.8 °F 59.0 °F 68% 29.90 in 10.0 mi SE 8.1 mph - N/A   Clear